Location: Bon Acre
(42.6442°N, 73.5758°W)
Time: 03:25:39
(UTC+00:00)

SL-08 R/B - Pass Details

Date: 16 March 2026
Orbit: 946 x 992 km, 83.0° (Epoch: 13 April)

Event Time Altitude Azimuth Distance (km) Brightness Sun altitude
Exits shadow 01:03:50 37° 66° (ENE) 1,438 5.0 -23.0°
Drops below altitude 10° 01:08:25 10° 22° (NNE) 2,675 6.8 -23.8°
Sets 01:11:03 0° 15° (NNE) 3,624 7.6 -24.3°
